Погода в Яани

Китай     29°59′44″N   103°00′22″E
темп.,
°C
ветер,
м/с
пор.,
м/с
влажн.,
%
обл.,
%
осадки,
мм/ч
давл.,
гПа
погр.,
м
8 мая, сб
сб823:00+17юз1187100 0.0 101311
02:00+15ссз119199 0.0 101311
05:00+14зюз118826 0.0 101312
08:00+17з127685 0.0 1014170
11:00+23в11561 0.0 1012797
14:00+26в22499 0.0 10081350
17:00+25в22543 0.0 10071213
20:00+20юв11750 0.1 100811
9 мая, вс
вс923:00+18зюз118448 0.1 101013
02:00+17з11884 0.1 100813
05:00+16з118735 0.0 100714
08:00+18з117461 0.0 1008145
11:00+24всв11594 0.0 1007889
14:00+26в225570 0.0 10041561
17:00+24в126588 0.1 1002564
20:00+21ююв017599 0.1 100211
10 мая, пн
пн1023:00+20з1181100 0.1 100411
02:00+19юз2287100 0.5 100329
05:00+19з118776 0.3 100215
08:00+20з1183100 0.5 100339
11:00+23с117128 1.9 1003348
14:00+25в236677 5.4 10011103
17:00+23всв2376100 6.8 1000437
20:00+19с1296100 11.8 1003119
11 мая, вт
вт1123:00+18ссз3699100 40.4 1005369
02:00+17зюз1198100 66.1 100769
05:00+17зюз2295100 0.9 100672
08:00+17з1293100 1.3 100851
11:00+18з2289100 0.1 100958
14:00+19з1286100 0.1 1007147
17:00+20з117980 0.0 1006218
20:00+18юз1183100 0.0 100711
12 мая, ср
ср1223:00+17зюз1184100 0.0 100812
02:00+16зюз118532 0.0 100713
05:00+15зюз11885 0.0 100712
08:00+17з1179100 0.0 1007133
11:00+22всв226396 0.0 1006799
14:00+24всв225882 0.0 10031431
17:00+24в2262100 0.0 10021188
20:00+21вюв017598 0.1 100311